sat.trackr.live / text

‹ back to catalog

STARLINK-3639

NORAD 51789 · 2022-017X

PAYLOAD ACTIVE UNKNOWN

§ Identity

Operator
Country
US
Launch date
2022-02-25
Launch site
AFWTR
Launch vehicle
Mass (kg)
RCS (m²)

Purposes: comms

External: N2YO · Heavens-Above · Gunter

§ Orbital elements

Epoch: 2026-09-20T03:53:51.075744Z

Period
93.85 min
Inclination
53.1593°
Eccentricity
0.0001264
Mean motion
15.34385956 rev/d
Perigee alt
461.9 km
Apogee alt
463.6 km
Semi-major
6,840.9 km
B*
5.5684e-6
RAAN
181.6310°
Arg perigee
78.4056°
Mean anomaly
281.7089°
Rev number
25,183

§ Raw data

STARLINK-36391 51789U 22017X   26263.16239671 -.00000188  00000+0  55684-5 0  99962 51789  53.1593 181.6310 0001264  78.4056 281.7089 15.34385956251834

JSON: /api/v1/satellites/51789 · /tle

For live sub-satellite position, see the globe view (requires WebGL).

§ Visibility from observer

Set your observer location to see the next 7 days of passes ≥ 10°. The values pass through the URL so the page stays shareable.

No JS? Fill the form by hand. The geolocation button needs JavaScript.